{"data":{"norad_id":50193,"intl_designator":"2021-125AP","name":"STARLINK-3261","alt_names":[],"object_type":"PAYLOAD","status":"ACTIVE","operator":null,"country":"US","launch_date":"2021-12-18","launch_site_code":"AFWTR","launch_vehicle":null,"mission":null,"orbit_class":"UNKNOWN","rcs_meters":null,"size_class":null,"mass_kg":null,"dimensions":null,"purposes":["comms"],"wikipedia_slug":null,"has_3d_model":false,"image_url":null,"decayed_at":null,"tle_current":{"epoch":"2026-09-19T21:10:28.773408Z","epoch_age_seconds":98677,"freshness":"FRESH","line1":"1 50193U 21125AP  26262.88227747 -.00000147  00000+0  70400-5 0  9990","line2":"2 50193  53.1598  75.7159 0001235  73.3460 286.7677 15.31702842266256","mean_motion":15.31702842,"eccentricity":0.0001235,"inclination_deg":53.1598,"raan_deg":75.7159,"arg_perigee_deg":73.346,"mean_anomaly_deg":286.7677,"bstar":7.04e-6,"rev_number":26625,"period_min":94.013013524199,"perigee_km":469.88568812199,"apogee_km":471.57735864727,"semimajor_km":6848.8685233846,"source":"CELESTRAK","updated_at":"2026-09-20T09:00:39.418999Z"}}}